Weather History for Christchurch, New Zealand

Change the Weather History Date:

Tuesday, October 1, 2013

  Actual Average Record
Temperature  
Mean Temperature 48 °F -  
Max Temperature 60 °F 59 °F 71 °F (1999)
Min Temperature 37 °F 39 °F 30 °F (2008)
Degree Days  
Heating Degree Days 16    
Moisture  
Dew Point 45 °F    
Average Humidity 82    
Maximum Humidity 100    
Minimum Humidity 59    
Precipitation  
Precipitation 0.00 in - - ()
Sea Level Pressure  
Sea Level Pressure 29.89 in    
Wind  
Wind Speed 7 mph ()    
Max Wind Speed 15 mph    
Max Gust Speed -    
Visibility 5.7 miles    
Events Fog    
Averages and records for this station are not official NWS values.
T = Trace of Precipitation, MM = Missing Value Source: Averaged Metar Reports

Daily Weather History Graph

Daily Weather History Graph

Search for Another Location

Airport:

Trip Planner

Search our weather history database for the weather conditions in past years. The results will help you decide how hot, cold, wet, or windy it might be!

Date:

Astronomy

Oct. 01, 2013 Rise Set
Actual Time 7:03 AM NZDT 7:36 PM NZDT
Civil Twilight 6:34 AM NZDT 8:05 PM NZDT
Nautical Twilight 6:00 AM NZDT 8:39 PM NZDT
Astronomical Twilight 5:25 AM NZDT 9:14 PM NZDT
Moon 4:42 AM NZDT (10/1) 3:41 PM NZDT (10/1)
Length of Visible Light 13h 30m
Length of Day
12h 33m
Waning Crescent, 17% of the Moon is Illuminated
Oct 1
Waning Crescent
Oct 5
New
Oct 12
First Quarter
Oct 19
Full
Oct 27
Last Quarter

Hourly Weather History & Observations

Time (NZDT) Temp. Windchill Dew Point Humidity Pressure Visibility Wind Dir Wind Speed Gust Speed Precip Events Conditions
12:00 AM 46.4 °F 41.9 °F 44.6 °F 93% 29.89 in 6.2 mi East 9.2 mph - N/A   Unknown
12:30 AM 46.4 °F 42.9 °F 44.6 °F 93% 29.89 in 6.2 mi ENE 6.9 mph - N/A   Unknown
1:00 AM 42.8 °F 39.3 °F 41.0 °F 93% 29.89 in 6.2 mi ENE 5.8 mph - N/A   Unknown
1:30 AM 42.8 °F 39.3 °F 41.0 °F 93% 29.89 in 6.2 mi ENE 5.8 mph - N/A   Unknown
2:00 AM 41.0 °F 36.4 °F 41.0 °F 100% 29.89 in 6.2 mi ENE 6.9 mph - N/A   Unknown
2:30 AM 46.4 °F 42.4 °F 44.6 °F 93% 29.89 in 6.2 mi ENE 8.1 mph - N/A   Unknown
3:00 AM 42.8 °F 39.3 °F 42.8 °F 100% 29.89 in 6.2 mi NE 5.8 mph - N/A   Unknown
3:30 AM 41.0 °F 37.1 °F 41.0 °F 100% 29.89 in 6.2 mi NE 5.8 mph - N/A   Unknown
4:00 AM 41.0 °F 37.1 °F 41.0 °F 100% 29.89 in 0.3 mi NE 5.8 mph - N/A Fog Fog
4:30 AM 41.0 °F 39.0 °F 41.0 °F 100% 29.89 in 0.2 mi NNE 3.5 mph - N/A Fog Fog
5:00 AM 39.2 °F 35.9 °F 39.2 °F 100% 29.89 in 0.2 mi NNE 4.6 mph - N/A Fog Fog
5:30 AM 41.0 °F 39.0 °F 41.0 °F 100% 29.89 in 1.6 mi NE 3.5 mph - N/A Fog Patches of Fog
6:00 AM 39.2 °F 35.9 °F 39.2 °F 100% 29.89 in - NE 4.6 mph - N/A Fog Fog
6:30 AM 39.2 °F 35.9 °F 39.2 °F 100% 29.89 in 6.2 mi North 4.6 mph - N/A   Unknown
7:00 AM 37.4 °F 32.8 °F 37.4 °F 100% 29.89 in 6.2 mi NNE 5.8 mph - N/A   Unknown
7:30 AM 39.2 °F 35.9 °F 39.2 °F 100% 29.89 in 6.2 mi NNE 4.6 mph - N/A   Unknown
8:00 AM 41.0 °F 38.0 °F 41.0 °F 100% 29.92 in 6.2 mi NNE 4.6 mph - N/A   Unknown
8:30 AM 48.2 °F - 46.4 °F 93% 29.92 in 6.2 mi NE 5.8 mph - N/A   Unknown
9:00 AM 51.8 °F - 50.0 °F 94% 29.92 in 6.2 mi ENE 8.1 mph - N/A   Unknown
9:30 AM 53.6 °F - 48.2 °F 82% 29.92 in 6.2 mi East 11.5 mph - N/A   Unknown
10:00 AM 55.4 °F - 48.2 °F 77% 29.92 in 6.2 mi ENE 12.7 mph - N/A   Unknown
10:30 AM 55.4 °F - 48.2 °F 77% 29.92 in 6.2 mi ENE 13.8 mph - N/A   Unknown
11:00 AM 57.2 °F - 50.0 °F 77% 29.92 in 6.2 mi ENE 12.7 mph - N/A   Unknown
11:30 AM 59.0 °F - 48.2 °F 67% 29.92 in 6.2 mi ENE 12.7 mph - N/A   Unknown
12:00 PM 59.0 °F - 46.4 °F 63% 29.92 in 6.2 mi East 13.8 mph - N/A   Unknown
12:30 PM 59.0 °F - 48.2 °F 67% 29.89 in 6.2 mi East 12.7 mph - N/A   Unknown
1:00 PM 60.8 °F - 50.0 °F 68% 29.89 in 6.2 mi East 13.8 mph - N/A   Unknown
1:30 PM 59.0 °F - 50.0 °F 72% 29.89 in 6.2 mi ENE 15.0 mph - N/A   Unknown
2:00 PM 59.0 °F - 50.0 °F 72% 29.89 in 6.2 mi East 12.7 mph - N/A   Unknown
2:30 PM 59.0 °F - 50.0 °F 72% 29.89 in 6.2 mi East 12.7 mph - N/A   Unknown
3:00 PM 60.8 °F - 50.0 °F 68% 29.89 in 6.2 mi East 13.8 mph - N/A   Unknown
3:30 PM 60.8 °F - 50.0 °F 68% 29.86 in 6.2 mi East 15.0 mph - N/A   Unknown
4:00 PM 59.0 °F - 48.2 °F 67% 29.86 in 6.2 mi East 13.8 mph - N/A   Unknown
4:30 PM 60.8 °F - 48.2 °F 63% 29.86 in 6.2 mi East 13.8 mph - N/A   Unknown
5:00 PM 60.8 °F - 48.2 °F 63% 29.83 in 6.2 mi East 13.8 mph - N/A   Unknown
5:30 PM 60.8 °F - 46.4 °F 59% 29.86 in 6.2 mi East 12.7 mph - N/A   Unknown
6:00 PM 60.8 °F - 46.4 °F 59% 29.83 in 6.2 mi East 11.5 mph - N/A   Unknown
6:30 PM 59.0 °F - 46.4 °F 63% 29.86 in 6.2 mi East 11.5 mph - N/A   Unknown
7:00 PM 59.0 °F - 46.4 °F 63% 29.86 in 6.2 mi East 9.2 mph - N/A   Unknown
7:30 PM 57.2 °F - 44.6 °F 63% 29.86 in 6.2 mi East 6.9 mph - N/A   Unknown
8:00 PM 53.6 °F - 44.6 °F 72% 29.86 in 6.2 mi ENE 6.9 mph - N/A   Unknown
8:30 PM 53.6 °F - 44.6 °F 72% 29.86 in 6.2 mi NNE 4.6 mph - N/A   Unknown
9:00 PM 51.8 °F - 44.6 °F 76% 29.89 in 6.2 mi North 4.6 mph - N/A   Unknown
9:30 PM 50.0 °F - 46.4 °F 87% 29.89 in 6.2 mi North 4.6 mph - N/A   Unknown
10:00 PM 50.0 °F - 46.4 °F 87% 29.89 in 6.2 mi NW 3.5 mph - N/A   Unknown
10:30 PM 50.0 °F - 46.4 °F 87% 29.89 in 6.2 mi NNE 4.6 mph - N/A   Unknown
11:00 PM 48.2 °F - 46.4 °F 93% 29.89 in 6.2 mi NNW 3.5 mph - N/A   Unknown
11:30 PM 48.2 °F - 46.4 °F 93% 29.89 in 6.2 mi NNE 3.5 mph - N/A   Unknown